| time (UTC) | temp F | wind direction | speed MPH | gust MPH | rain 1hr in | rain 24hr in | rain mn in | humidity % | barometer mb |
| 20260904105313 | 73 | 4 | 0.0 | 5.0 | 0.00 | 0.01 | 0.00 | 88 | 1012.1 |
| 20260904104312 | 73 | 322 | 0.0 | 3.0 | 0.00 | 0.01 | 0.00 | 88 | 1012.1 |
| 20260904103315 | 73 | 58 | 0.0 | 3.0 | 0.00 | 0.01 | 0.00 | 89 | 1011.8 |
| 20260904102336 | 73 | 1 | 0.0 | 2.0 | 0.00 | 0.01 | 0.00 | 89 | 1011.8 |
| 20260904101319 | 73 | 128 | 0.0 | 1.0 | 0.00 | 0.01 | 0.00 | 89 | 1011.8 |
| 20260904100311 | 73 | 16 | 0.0 | 1.0 | 0.00 | 0.01 | 0.00 | 88 | 1012.1 |
| 20260904095309 | 74 | 346 | 0.0 | 0.0 | 0.00 | 0.10 | 0.00 | 87 | 1011.9 |
| 20260904094310 | 74 | 345 | 0.0 | 4.0 | 0.00 | 0.10 | 0.00 | 86 | 1011.9 |
| 20260904093324 | 75 | 133 | 0.0 | 2.0 | 0.00 | 0.10 | 0.00 | 86 | 1011.9 |
| 20260904092344 | 75 | 353 | 0.0 | 3.0 | 0.00 | 0.10 | 0.00 | 86 | 1012.0 |
| 20260904091325 | 75 | 293 | 0.0 | 2.0 | 0.00 | 0.10 | 0.00 | 86 | 1012.0 |
| 20260904090349 | 75 | 67 | 0.0 | 3.0 | 0.00 | 0.10 | 0.00 | 86 | 1012.2 |
| 20260904085325 | 76 | 218 | 0.0 | 2.0 | 0.00 | 0.60 | 0.00 | 87 | 1012.1 |
| 20260904084320 | 76 | 118 | 1.0 | 3.0 | 0.00 | 0.60 | 0.00 | 87 | 1012.1 |
| 20260904083322 | 76 | 249 | 0.0 | 3.0 | 0.00 | 0.60 | 0.00 | 87 | 1011.9 |
| 20260904082343 | 76 | 239 | 0.0 | 3.0 | 0.00 | 0.60 | 0.00 | 87 | 1011.9 |
| 20260904081322 | 76 | 140 | 0.0 | 3.0 | 0.00 | 0.60 | 0.00 | 88 | 1012.0 |
| 20260904080319 | 76 | 134 | 0.0 | 3.0 | 0.00 | 0.60 | 0.00 | 88 | 1012.1 |
| 20260904075320 | 76 | 111 | 0.0 | 1.0 | 0.00 | 0.74 | 0.00 | 89 | 1012.2 |
| 20260904074322 | 76 | 235 | 0.0 | 1.0 | 0.00 | 0.74 | 0.00 | 89 | 1012.3 |
| 20260904073318 | 76 | 293 | 0.0 | 0.0 | 0.00 | 0.74 | 0.00 | 89 | 1012.1 |
| 20260904072341 | 76 | 296 | 0.0 | 2.0 | 0.00 | 0.74 | 0.00 | 89 | 1012.0 |
| 20260904071326 | 76 | 172 | 0.0 | 0.0 | 0.00 | 0.74 | 0.00 | 89 | 1011.7 |
| 20260904070329 | 76 | 260 | 0.0 | 0.0 | 0.00 | 0.74 | 0.00 | 89 | 1011.6 |
| 20260904065323 | 75 | 260 | 0.0 | 2.0 | 0.00 | 0.91 | 0.00 | 89 | 1011.3 |
| 20260904064323 | 75 | 124 | 0.0 | 0.0 | 0.00 | 0.91 | 0.00 | 89 | 1011.2 |
| 20260904063326 | 75 | 124 | 0.0 | 0.0 | 0.00 | 0.91 | 0.00 | 90 | 1011.2 |
| 20260904062344 | 75 | 124 | 0.0 | 1.0 | 0.00 | 0.91 | 0.00 | 90 | 1011.3 |
| 20260904061316 | 75 | 124 | 0.0 | 0.0 | 0.00 | 0.91 | 0.00 | 90 | 1011.3 |
| 20260904060315 | 76 | 123 | 0.0 | 0.0 | 0.00 | 0.91 | 0.00 | 89 | 1011.6 |
| 20260904055317 | 76 | 123 | 0.0 | 0.0 | 0.00 | 1.57 | 0.00 | 89 | 1011.7 |
| 20260904054334 | 76 | 123 | 0.0 | 0.0 | 0.00 | 1.57 | 0.00 | 88 | 1012.0 |
| 20260904053328 | 76 | 124 | 0.0 | 0.0 | 0.00 | 1.57 | 0.00 | 87 | 1012.3 |
| 20260904052326 | 77 | 123 | 0.0 | 0.0 | 0.00 | 1.57 | 0.00 | 86 | 1012.3 |
| 20260904051327 | 77 | 123 | 0.0 | 0.0 | 0.00 | 1.57 | 0.00 | 86 | 1012.5 |
| 20260904050345 | 77 | 124 | 0.0 | 3.0 | 0.00 | 1.57 | 0.00 | 85 | 1012.1 |
| 20260904045324 | 78 | 108 | 0.0 | 1.0 | 0.00 | 1.57 | 0.00 | 86 | 1012.4 |
| 20260904044313 | 78 | 31 | 0.0 | 1.0 | 0.00 | 1.57 | 0.00 | 86 | 1012.2 |
| 20260904043326 | 78 | 169 | 1.0 | 3.0 | 0.00 | 1.57 | 0.00 | 87 | 1012.4 |
| 20260904042322 | 77 | 143 | 0.0 | 5.0 | 0.00 | 1.57 | 0.00 | 90 | 1012.6 |
| 20260904041321 | 77 | 117 | 0.0 | 1.0 | 0.00 | 1.57 | 0.00 | 92 | 1012.7 |
| 20260904040342 | 77 | 110 | 0.0 | 0.0 | 0.00 | 1.57 | 0.00 | 92 | 1012.9 |
| 20260904035323 | 77 | 109 | 0.0 | 0.0 | 0.00 | 1.57 | 1.57 | 91 | 1012.7 |
| 20260904034318 | 77 | 110 | 0.0 | 0.0 | 0.00 | 1.57 | 1.57 | 91 | 1012.8 |
| 20260904033321 | 77 | 110 | 0.0 | 0.0 | 0.00 | 1.57 | 1.57 | 91 | 1012.8 |
| 20260904032326 | 77 | 110 | 0.0 | 0.0 | 0.00 | 1.57 | 1.57 | 92 | 1013.0 |
| 20260904031318 | 77 | 109 | 0.0 | 1.0 | 0.00 | 1.57 | 1.57 | 92 | 1013.3 |
| 20260904030322 | 77 | 107 | 0.0 | 0.0 | 0.00 | 1.57 | 1.57 | 92 | 1013.2 |
| 20260904025344 | 77 | 107 | 0.0 | 0.0 | 0.00 | 1.57 | 1.57 | 92 | 1013.2 |
| 20260904024344 | 77 | 107 | 0.0 | 0.0 | 0.00 | 1.57 | 1.57 | 91 | 1013.0 |
| 20260904023327 | 77 | 107 | 0.0 | 0.0 | 0.00 | 1.57 | 1.57 | 90 | 1013.2 |
| 20260904022320 | 78 | 107 | 0.0 | 0.0 | 0.00 | 1.57 | 1.57 | 90 | 1013.2 |
| 20260904021320 | 78 | 107 | 0.0 | 0.0 | 0.00 | 1.57 | 1.57 | 89 | 1013.3 |
| 20260904020324 | 78 | 107 | 0.0 | 0.0 | 0.00 | 1.57 | 1.57 | 88 | 1013.4 |
| 20260904015330 | 78 | 107 | 0.0 | 1.0 | 0.00 | 1.57 | 1.57 | 88 | 1013.5 |
| 20260904014328 | 79 | 120 | 0.0 | 0.0 | 0.00 | 1.57 | 1.57 | 88 | 1013.4 |
| 20260904013331 | 79 | 120 | 0.0 | 0.0 | 0.00 | 1.57 | 1.57 | 88 | 1013.4 |
| 20260904012334 | 79 | 121 | 0.0 | 2.0 | 0.00 | 1.57 | 1.57 | 87 | 1013.8 |
| 20260904011309 | 79 | 161 | 0.0 | 1.0 | 0.00 | 1.57 | 1.57 | 87 | 1013.8 |
| 20260904010334 | 79 | 136 | 0.0 | 1.0 | 0.00 | 1.57 | 1.57 | 87 | 1013.8 |
| 20260904005314 | 80 | 170 | 0.0 | 2.0 | 0.00 | 1.57 | 1.57 | 87 | 1013.8 |
| 20260904004316 | 80 | 154 | 0.0 | 1.0 | 0.00 | 1.57 | 1.57 | 87 | 1013.8 |
| 20260904003315 | 80 | 250 | 0.0 | 1.0 | 0.00 | 1.57 | 1.57 | 87 | 1013.7 |
| 20260904002316 | 80 | 215 | 0.0 | 1.0 | 0.00 | 1.57 | 1.57 | 87 | 1013.4 |
| 20260904001318 | 80 | 115 | 0.0 | 0.0 | 0.00 | 1.57 | 1.57 | 86 | 1013.3 |
| 20260904000315 | 81 | 98 | 0.0 | 0.0 | 0.00 | 1.57 | 1.57 | 85 | 1013.2 |
| 20260903235316 | 81 | 86 | 0.0 | 1.0 | 0.00 | 1.57 | 1.57 | 84 | 1013.2 |
| 20260903234311 | 81 | 103 | 0.0 | 1.0 | 0.00 | 1.57 | 1.57 | 82 | 1013.5 |
| 20260903233315 | 81 | 249 | 0.0 | 1.0 | 0.00 | 1.57 | 1.57 | 80 | 1013.4 |
| 20260903232338 | 82 | 128 | 0.0 | 0.0 | 0.00 | 1.57 | 1.57 | 78 | 1013.1 |
| 20260903231315 | 83 | 128 | 0.0 | 0.0 | 0.00 | 1.57 | 1.57 | 75 | 1013.0 |
| 20260903230356 | 84 | 128 | 0.0 | 0.0 | 0.00 | 1.57 | 1.57 | 73 | 1012.9 |
| 20260903225312 | 85 | 288 | 0.0 | 0.0 | 0.00 | 1.57 | 1.57 | 73 | 1013.1 |
| 20260903224318 | 85 | 288 | 0.0 | 0.0 | 0.00 | 1.57 | 1.57 | 73 | 1012.8 |
| 20260903223334 | 86 | 248 | 0.0 | 2.0 | 0.00 | 1.57 | 1.57 | 70 | 1012.7 |
| 20260903222334 | 87 | 245 | 1.0 | 3.0 | 0.00 | 1.57 | 1.57 | 68 | 1012.8 |
| 20260903221312 | 88 | 138 | 0.0 | 2.0 | 0.00 | 1.57 | 1.57 | 66 | 1012.7 |
| 20260903220331 | 89 | 115 | 0.0 | 3.0 | 0.00 | 1.57 | 1.57 | 65 | 1012.6 |
| 20260903215312 | 90 | 46 | 0.0 | 1.0 | 0.00 | 1.57 | 1.57 | 64 | 1012.7 |
| 20260903214323 | 90 | 136 | 0.0 | 3.0 | 0.00 | 1.57 | 1.57 | 62 | 1012.5 |
| 20260903213322 | 92 | 101 | 0.0 | 5.0 | 0.00 | 1.57 | 1.57 | 58 | 1012.3 |
| 20260903212326 | 91 | 278 | 0.0 | 1.0 | 0.00 | 1.57 | 1.57 | 59 | 1012.4 |
| 20260903211310 | 91 | 70 | 0.0 | 5.0 | 0.00 | 1.57 | 1.57 | 56 | 1012.5 |
| 20260903210326 | 92 | 141 | 0.0 | 4.0 | 0.00 | 1.57 | 1.57 | 56 | 1012.5 |
| 20260903205310 | 93 | 273 | 0.0 | 2.0 | 0.00 | 1.57 | 1.57 | 55 | 1012.5 |
| 20260903204311 | 93 | 101 | 0.0 | 2.0 | 0.00 | 1.57 | 1.57 | 56 | 1012.5 |
| 20260903203325 | 92 | 144 | 0.0 | 4.0 | 0.00 | 1.57 | 1.57 | 60 | 1012.6 |
| 20260903202323 | 92 | 217 | 0.0 | 3.0 | 0.00 | 1.57 | 1.57 | 54 | 1012.7 |
| 20260903201321 | 91 | 235 | 1.0 | 4.0 | 0.00 | 1.57 | 1.57 | 59 | 1012.9 |
| 20260903200324 | 91 | 105 | 0.0 | 3.0 | 0.00 | 1.57 | 1.57 | 59 | 1012.9 |
| 20260903195324 | 91 | 24 | 1.0 | 6.0 | 0.00 | 1.57 | 1.57 | 56 | 1013.0 |
| 20260903194323 | 91 | 90 | 0.0 | 4.0 | 0.00 | 1.57 | 1.57 | 59 | 1013.0 |
| 20260903193317 | 91 | 195 | 2.0 | 5.0 | 0.00 | 1.57 | 1.57 | 58 | 1013.1 |
| 20260903192315 | 91 | 128 | 2.0 | 6.0 | 0.00 | 1.57 | 1.57 | 60 | 1013.3 |
| 20260903191316 | 91 | 244 | 1.0 | 6.0 | 0.00 | 1.57 | 1.57 | 59 | 1013.5 |
| 20260903190309 | 90 | 137 | 1.0 | 8.0 | 0.00 | 1.57 | 1.57 | 62 | 1013.8 |
| 20260903185334 | 90 | 13 | 2.0 | 4.0 | 0.00 | 1.58 | 1.57 | 63 | 1013.8 |
| 20260903184328 | 90 | 176 | 0.0 | 4.0 | 0.00 | 1.58 | 1.57 | 66 | 1014.0 |
| 20260903183329 | 89 | 163 | 0.0 | 5.0 | 0.00 | 1.58 | 1.57 | 65 | 1013.9 |
| 20260903182334 | 89 | 295 | 1.0 | 4.0 | 0.00 | 1.58 | 1.57 | 68 | 1013.9 |
| 20260903181334 | 89 | 344 | 1.0 | 5.0 | 0.00 | 1.58 | 1.57 | 65 | 1014.1 |
| 20260903180333 | 89 | 136 | 1.0 | 8.0 | 0.00 | 1.58 | 1.57 | 66 | 1014.1 |
| 20260903175355 | 88 | 178 | 1.0 | 6.0 | 0.00 | 1.60 | 1.57 | 68 | 1014.2 |
| 20260903174335 | 89 | 155 | 2.0 | 4.0 | 0.00 | 1.60 | 1.57 | 66 | 1014.3 |
| 20260903173326 | 88 | 107 | 1.0 | 4.0 | 0.00 | 1.60 | 1.57 | 69 | 1014.4 |
| 20260903172310 | 87 | 61 | 0.0 | 4.0 | 0.00 | 1.60 | 1.57 | 66 | 1014.6 |
| 20260903171329 | 88 | 295 | 2.0 | 8.0 | 0.00 | 1.60 | 1.57 | 66 | 1014.8 |
| 20260903170322 | 88 | 287 | 0.0 | 2.0 | 0.00 | 1.60 | 1.57 | 70 | 1014.9 |
| 20260903165318 | 87 | 107 | 1.0 | 6.0 | 0.00 | 1.60 | 1.57 | 70 | 1015.0 |
| 20260903164317 | 86 | 167 | 0.0 | 5.0 | 0.00 | 1.60 | 1.57 | 71 | 1015.0 |
| 20260903163309 | 86 | 322 | 0.0 | 4.0 | 0.00 | 1.60 | 1.57 | 73 | 1015.2 |
| 20260903162324 | 85 | 230 | 0.0 | 4.0 | 0.00 | 1.60 | 1.57 | 78 | 1015.5 |
| 20260903161326 | 85 | 127 | 0.0 | 3.0 | 0.00 | 1.60 | 1.57 | 78 | 1015.8 |
| 20260903160344 | 83 | 243 | 0.0 | 3.0 | 0.00 | 1.60 | 1.57 | 78 | 1016.0 |
| 20260903155317 | 83 | 263 | 0.0 | 3.0 | 0.00 | 1.60 | 1.57 | 79 | 1016.5 |
| 20260903154326 | 83 | 228 | 1.0 | 9.0 | 0.00 | 1.60 | 1.57 | 79 | 1016.1 |
| 20260903153316 | 83 | 264 | 1.0 | 5.0 | 0.00 | 1.60 | 1.57 | 81 | 1016.0 |
| 20260903152314 | 81 | 245 | 0.0 | 5.0 | 0.00 | 1.60 | 1.57 | 88 | 1015.9 |
| 20260903151331 | 80 | 233 | 0.0 | 3.0 | 0.00 | 1.60 | 1.57 | 87 | 1016.3 |
| 20260903150332 | 80 | 248 | 0.0 | 3.0 | 0.00 | 1.60 | 1.57 | 88 | 1016.2 |
| 20260903145328 | 79 | 238 | 0.0 | 2.0 | 0.00 | 1.60 | 1.57 | 91 | 1016.1 |
| 20260903144355 | 78 | 234 | 0.0 | 3.0 | 0.00 | 1.60 | 1.57 | 93 | 1016.0 |
| 20260903143324 | 77 | 306 | 1.0 | 3.0 | 0.00 | 1.60 | 1.57 | 94 | 1016.0 |
| 20260903142320 | 76 | 154 | 0.0 | 3.0 | 0.00 | 1.60 | 1.57 | 96 | 1016.0 |
| 20260903141321 | 76 | 119 | 1.0 | 4.0 | 0.00 | 1.60 | 1.57 | 97 | 1016.1 |
| 20260903140338 | 76 | 327 | 0.0 | 1.0 | 0.00 | 1.60 | 1.57 | 97 | 1016.1 |
| 20260903135325 | 76 | 250 | 1.0 | 3.0 | 0.00 | 1.60 | 1.57 | 98 | 1015.9 |
| 20260903134325 | 75 | 107 | 0.0 | 3.0 | 0.00 | 1.60 | 1.57 | 98 | 1015.4 |
| 20260903133322 | 75 | 134 | 1.0 | 4.0 | 0.00 | 1.60 | 1.57 | 98 | 1015.4 |
| 20260903132324 | 75 | 148 | 1.0 | 4.0 | 0.00 | 1.60 | 1.57 | 98 | 1015.3 |
| 20260903131328 | 74 | 108 | 1.0 | 3.0 | 0.00 | 1.60 | 1.57 | 98 | 1015.5 |
| 20260903130332 | 74 | 226 | 0.0 | 4.0 | 0.01 | 1.60 | 1.57 | 98 | 1015.7 |
| 20260903125335 | 73 | 98 | 0.0 | 3.0 | 0.01 | 1.60 | 1.57 | 98 | 1015.6 |
| 20260903124325 | 73 | 288 | 0.0 | 5.0 | 0.01 | 1.60 | 1.57 | 98 | 1015.6 |
| 20260903123328 | 72 | 221 | 0.0 | 4.0 | 0.01 | 1.60 | 1.57 | 98 | 1015.5 |
| 20260903122332 | 72 | 166 | 0.0 | 4.0 | 0.01 | 1.60 | 1.57 | 98 | 1015.4 |
| 20260903121318 | 71 | 115 | 0.0 | 7.0 | 0.01 | 1.60 | 1.57 | 98 | 1015.3 |
| 20260903120313 | 71 | 57 | 1.0 | 6.0 | 0.00 | 1.59 | 1.56 | 98 | 1015.1 |
| 20260903115313 | 71 | 115 | 1.0 | 4.0 | 0.00 | 1.59 | 1.56 | 98 | 1015.6 |
| 20260903114330 | 71 | 77 | 0.0 | 3.0 | 0.00 | 1.59 | 1.56 | 98 | 1016.1 |
| 20260903113311 | 71 | 328 | 0.0 | 4.0 | 0.00 | 1.59 | 1.56 | 98 | 1016.3 |
| 20260903112316 | 70 | 141 | 0.0 | 4.0 | 0.00 | 1.59 | 1.56 | 98 | 1016.4 |
| 20260903111317 | 70 | 124 | 0.0 | 1.0 | 0.00 | 1.59 | 1.56 | 98 | 1016.7 |
| 20260903110316 | 70 | 291 | 1.0 | 3.0 | 0.00 | 1.59 | 1.56 | 98 | 1017.0 |